Regional Weather Roundup
Issued by NWS Northern Indiana

Home | Current Version | Previous Version | Graphics & Text | Print | Product List | Glossary On
Versions: 1 2 3 4 5 6 7 8 9 10 11 12 13 14 15 16 17 18 19 20 21 22 23 24 25 26 27 28 29 30 31 32 33 34 35 36 37 38 39 40 41 42 43 44 45 46 47 48 49 50
000
ASUS43 KIWX 201900
RWRIWX

KIWX WEATHER ROUNDUP
NATIONAL WEATHER SERVICE NORTHERN INDIANA
300 PM EDT SAT SEP 20 2014

NOTE: "FAIR" INDICATES FEW OR NO CLOUDS BELOW 12,000 FEET WITH NO
SIGNIFICANT WEATHER AND/OR OBSTRUCTIONS TO VISIBILITY.

* THESE STATIONS ARE NOT UNDER NWS QUALITY CONTROL. THEY ALSO MAY NOT
  REPORT WEATHER SUCH AS PRECIPITATION OR FOG.

INZ001>027-202000-
NORTHERN INDIANA

CITY           SKY/WX    TMP DP  RH WIND       PRES   REMARKS
GARY*          PTSUNNY   81  64  57 SW17G33   29.85F
VALPARAISO     PTSUNNY   81  64  56 SW18G28   29.87F
SOUTH BEND     PTSUNNY   80  64  58 SW17G23   29.86F
GOSHEN         MOSUNNY   79  64  60 SW18G26   29.87F
ANGOLA*        SUNNY     81  75  83 SW17      29.88F
FORT WAYNE     PTSUNNY   79  63  57 SW15G26   29.92F
PERU/GRISSOM   MOSUNNY   80  68  67 SW18      29.90F

$$
INZ028>050-202000-
CENTRAL INDIANA

CITY           SKY/WX    TMP DP  RH WIND       PRES   REMARKS
LAFAYETTE      PTSUNNY   79  64  60 S14G25    29.90F
KOKOMO*        MOSUNNY   81  63  54 SW16G26   29.93F
MUNCIE*        MOSUNNY   79  60  52 SW13G21   29.95F
INDIANAPOLIS   CLOUDY    77  64  64 SW14      29.97

$$
MIZ043>046-050>051-056>058-064>065-071>073-077>080-202000-
SOUTHWEST LOWER MICHIGAN

CITY           SKY/WX    TMP DP  RH WIND       PRES   REMARKS
BATTLE CREEK   CLOUDY    79  63  57 SW21G28   29.85F
BENTON HARBOR  CLOUDY    75  64  68 W17G25    29.86R
COLDWATER*     LGT RAIN  74  65  75 SW7G18    29.88S
HILLSDALE*     PTSUNNY   78  61  56 SW8G17    29.89F
HOLLAND        LGT RAIN  72  65  78 SW23G31   29.82F
GRAND RAPIDS   LGT RAIN  75  67  76 SW10      29.81F
KALAMAZOO      PTSUNNY   81  64  56 SW18G25   29.84F
STURGIS*       CLOUDY    75  64  69 SW13      29.87F
THREE RIVERS*  PTSUNNY   78  65  64 SW17G23   29.86F

$$
OHZ001>008-015>018-024>025-202000-
NORTHWEST OHIO

CITY           SKY/WX    TMP DP  RH WIND       PRES   REMARKS
DEFIANCE       SUNNY     80  60  50 SW18G24   29.90F
FINDLAY        SUNNY     82  57  42 SW22G28   29.91F
TOLEDO EXPRESS SUNNY     80  59  48 SW15G24   29.89F
TOLEDO METCALF SUNNY     81  57  43 SW22G30   29.89F
LIMA           SUNNY     80  59  48 SW18G25   29.94F

$$
AND FOR LAKE MICHIGAN COASTAL AND OPEN LAKE BUOY OBSERVATIONS

STATION/POSITION TEMP    WIND        PRES    VSBY  WAVE
                 AIR SEA DIR/SP/G                  HT/PER
                 (F)     (DEG/KT/KT) (MB)    (MI)  (FT/S)
CALUMET HARBOR    78     200/ 15/ 20 1009.2F
MICHIGAN CITY     76     190/ 23/ 28   N/A
SAINT JOSEPH      71     190/  9/ 18 1011.5F
SOUTH LAKE BUOY   65 63  200/ 16/ 19 1009.3F         4/ 6
4 MI NW BRIDGMAN  71 65  210/ 14/ 17   N/A           3/ 4
MICHIGAN CITY     73 65  220/ 14/ 17   N/A           3/ 4
SAINT JOSEPH CG                      1010.0F     6   3

$$
&&



USA.gov is the U.S. government's official web portal to all federal, state and local government web resources and services.